Time,TemperatureF,DewpointF,PressureIn,WindDirection,WindDirectionDegrees,WindSpeedMPH,WindSpeedGustMPH,Humidity,HourlyPrecipIn,Conditions,Clouds,dailyrainin,SoftwareType,DateUTC
2013-01-29 00:00:00,39.4,35.5,30.11,South,170,0.0,0.0,86,0.00,SCT,OVC,0.00,WeatherDisplay:10.37,2013-01-29 05:00:00,
2013-01-29 00:01:00,39.4,35.5,30.11,South,170,0.0,0.0,86,0.00,CLR,OVC,0.00,WeatherDisplay:10.37,2013-01-29 05:01:00,
2013-01-29 00:03:00,39.2,35.4,30.11,South,170,0.0,0.0,86,0.00,CLR,OVC,0.00,WeatherDisplay:10.37,2013-01-29 05:03:00,
2013-01-29 00:08:00,39.0,35.2,30.11,South,170,0.0,0.0,86,0.00,CLR,OVC,0.00,WeatherDisplay:10.37,2013-01-29 05:08:00,
2013-01-29 00:13:00,39.0,35.2,30.11,South,170,0.0,0.0,86,0.00,CLR,OVC,0.00,WeatherDisplay:10.37,2013-01-29 05:13:00,
2013-01-29 00:18:00,39.0,35.2,30.11,South,170,0.0,0.0,86,0.00,CLR,OVC,0.00,WeatherDisplay:10.37,2013-01-29 05:18:00,
2013-01-29 00:23:00,39.0,35.5,30.11,South,170,0.0,0.0,87,0.00,CLR,OVC,0.00,WeatherDisplay:10.37,2013-01-29 05:23:00,
2013-01-29 00:28:00,39.0,35.5,30.11,South,170,0.0,0.0,87,0.00,CLR,OVC,0.00,WeatherDisplay:10.37,2013-01-29 05:28:00,
2013-01-29 00:33:00,38.8,35.3,30.11,South,170,0.0,0.0,87,0.00,CLR,OVC,0.00,WeatherDisplay:10.37,2013-01-29 05:33:00,
2013-01-29 00:38:00,38.8,35.3,30.11,South,170,0.0,0.0,87,0.00,CLR,OVC,0.00,WeatherDisplay:10.37,2013-01-29 05:38:00,
2013-01-29 00:43:00,38.8,35.3,30.11,South,170,0.0,0.0,87,0.00,CLR,OVC,0.00,WeatherDisplay:10.37,2013-01-29 05:43:00,
2013-01-29 00:48:00,38.8,35.3,30.11,South,170,0.0,0.0,87,0.00,CLR,OVC,0.00,WeatherDisplay:10.37,2013-01-29 05:48:00,
2013-01-29 00:53:00,38.7,35.1,30.11,South,170,0.0,0.0,87,0.00,CLR,OVC,0.00,WeatherDisplay:10.37,2013-01-29 05:53:00,
2013-01-29 00:58:00,38.5,34.9,30.11,South,170,0.0,0.0,87,0.00,CLR,OVC,0.00,WeatherDisplay:10.37,2013-01-29 05:58:00,
2013-01-29 01:03:00,38.5,34.9,30.10,South,170,0.0,0.0,87,0.00,CLR,OVC,0.00,WeatherDisplay:10.37,2013-01-29 06:03:00,
2013-01-29 01:08:00,38.5,34.9,30.10,South,170,0.0,0.0,87,0.00,CLR,OVC,0.00,WeatherDisplay:10.37,2013-01-29 06:08:00,
2013-01-29 01:13:00,38.5,34.9,30.10,South,170,0.0,0.0,87,0.00,CLR,OVC,0.00,WeatherDisplay:10.37,2013-01-29 06:13:00,
2013-01-29 01:18:00,38.5,34.9,30.10,South,170,0.0,0.0,87,0.00,FEW,OVC,0.00,WeatherDisplay:10.37,2013-01-29 06:18:00,
2013-01-29 01:23:00,38.5,34.9,30.10,South,170,0.0,0.0,87,0.00,FEW,OVC,0.00,WeatherDisplay:10.37,2013-01-29 06:23:00,
2013-01-29 01:28:00,38.5,34.9,30.09,South,170,0.0,0.0,87,0.00,FEW,OVC,0.00,WeatherDisplay:10.37,2013-01-29 06:28:00,
2013-01-29 01:33:00,38.5,34.9,30.10,South,170,0.0,0.0,87,0.00,FEW,OVC,0.00,WeatherDisplay:10.37,2013-01-29 06:33:00,
2013-01-29 01:38:00,38.8,35.3,30.10,South,170,0.0,0.0,87,0.00,FEW,OVC,0.00,WeatherDisplay:10.37,2013-01-29 06:38:00,
2013-01-29 01:43:00,38.8,35.6,30.09,South,170,0.0,0.0,88,0.00,FEW,OVC,0.00,WeatherDisplay:10.37,2013-01-29 06:43:00,
2013-01-29 01:48:00,38.7,35.4,30.09,South,170,0.0,0.0,88,0.00,FEW,OVC,0.00,WeatherDisplay:10.37,2013-01-29 06:48:00,
2013-01-29 01:53:00,38.7,35.4,30.09,South,170,0.0,0.0,88,0.00,FEW,OVC,0.00,WeatherDisplay:10.37,2013-01-29 06:53:00,
2013-01-29 01:58:00,38.5,35.2,30.09,South,170,0.0,0.0,88,0.00,FEW,OVC,0.00,WeatherDisplay:10.37,2013-01-29 06:58:00,
2013-01-29 02:03:00,38.5,35.2,30.09,South,170,0.0,0.0,88,0.00,FEW,OVC,0.00,WeatherDisplay:10.37,2013-01-29 07:03:00,
2013-01-29 02:08:00,38.5,35.2,30.09,South,170,0.0,0.0,88,0.00,FEW,OVC,0.00,WeatherDisplay:10.37,2013-01-29 07:08:00,
2013-01-29 02:13:00,38.5,35.2,30.09,South,170,0.0,0.0,88,0.00,FEW,OVC,0.00,WeatherDisplay:10.37,2013-01-29 07:13:00,
2013-01-29 02:18:00,38.8,35.6,30.09,South,170,0.0,0.0,88,0.00,BKN,OVC,0.00,WeatherDisplay:10.37,2013-01-29 07:18:00,
2013-01-29 02:23:00,38.8,35.6,30.09,South,170,0.0,0.0,88,0.00,BKN,OVC,0.00,WeatherDisplay:10.37,2013-01-29 07:23:00,
2013-01-29 02:28:00,38.8,35.6,30.09,South,170,0.0,0.0,88,0.00,BKN,OVC,0.00,WeatherDisplay:10.37,2013-01-29 07:28:00,
2013-01-29 02:33:00,38.7,35.4,30.09,South,170,0.0,0.0,88,0.00,BKN,OVC,0.00,WeatherDisplay:10.37,2013-01-29 07:33:00,
2013-01-29 02:38:00,38.8,35.6,30.08,South,170,0.0,0.0,88,0.00,BKN,OVC,0.00,WeatherDisplay:10.37,2013-01-29 07:38:00,
2013-01-29 02:43:00,38.8,35.6,30.09,South,170,0.0,0.0,88,0.00,BKN,OVC,0.00,WeatherDisplay:10.37,2013-01-29 07:43:00,
2013-01-29 02:48:00,38.8,35.6,30.09,South,170,0.0,0.0,88,0.00,OVC,,0.00,WeatherDisplay:10.37,2013-01-29 07:48:00,
2013-01-29 02:53:00,38.8,35.6,30.09,South,170,0.0,0.0,88,0.00,OVC,,0.00,WeatherDisplay:10.37,2013-01-29 07:53:00,
2013-01-29 02:58:00,38.8,35.6,30.09,South,170,0.0,0.0,88,0.00,OVC,,0.00,WeatherDisplay:10.37,2013-01-29 07:58:00,
2013-01-29 03:03:00,39.0,36.1,30.09,South,170,0.0,0.0,89,0.00,OVC,,0.00,WeatherDisplay:10.37,2013-01-29 08:03:00,
2013-01-29 03:08:00,39.0,36.1,30.09,South,170,0.0,0.0,89,0.00,OVC,,0.00,WeatherDisplay:10.37,2013-01-29 08:08:00,
2013-01-29 03:13:00,39.0,36.1,30.09,South,170,0.0,0.0,89,0.00,OVC,,0.00,WeatherDisplay:10.37,2013-01-29 08:13:00,
2013-01-29 03:18:00,39.2,36.2,30.09,South,170,0.0,0.0,89,0.00,OVC,,0.00,WeatherDisplay:10.37,2013-01-29 08:18:00,
2013-01-29 03:23:00,39.4,36.4,30.09,South,170,0.0,0.0,89,0.00,OVC,,0.00,WeatherDisplay:10.37,2013-01-29 08:23:00,
2013-01-29 03:28:00,39.4,36.4,30.09,South,170,0.0,0.0,89,0.00,OVC,,0.00,WeatherDisplay:10.37,2013-01-29 08:28:00,
2013-01-29 03:33:00,39.6,36.6,30.09,South,170,0.0,0.0,89,0.00,OVC,,0.00,WeatherDisplay:10.37,2013-01-29 08:33:00,
2013-01-29 03:38:00,39.7,36.8,30.09,South,170,0.0,0.0,89,0.00,OVC,,0.00,WeatherDisplay:10.37,2013-01-29 08:38:00,
2013-01-29 03:43:00,39.7,37.0,30.09,South,170,0.0,0.0,90,0.00,OVC,,0.00,WeatherDisplay:10.37,2013-01-29 08:43:00,
2013-01-29 03:48:00,39.9,37.2,30.09,South,170,0.0,0.0,90,0.00,OVC,,0.00,WeatherDisplay:10.37,2013-01-29 08:48:00,
2013-01-29 03:53:00,39.9,37.2,30.09,South,170,0.0,0.0,90,0.00,OVC,,0.00,WeatherDisplay:10.37,2013-01-29 08:53:00,
2013-01-29 03:58:00,40.1,37.4,30.09,South,170,0.0,0.0,90,0.00,OVC,,0.00,WeatherDisplay:10.37,2013-01-29 08:58:00,
2013-01-29 04:03:00,40.3,37.6,30.09,South,170,0.0,0.0,90,0.00,OVC,,0.00,WeatherDisplay:10.37,2013-01-29 09:03:00,
2013-01-29 04:08:00,40.3,37.6,30.09,South,170,0.0,0.0,90,0.00,OVC,,0.00,WeatherDisplay:10.37,2013-01-29 09:08:00,
2013-01-29 04:13:00,40.6,37.9,30.09,South,170,0.0,0.0,90,0.00,OVC,,0.00,WeatherDisplay:10.37,2013-01-29 09:13:00,
2013-01-29 04:18:00,40.8,38.1,30.08,South,170,0.0,0.0,90,0.00,OVC,,0.00,WeatherDisplay:10.37,2013-01-29 09:18:00,
2013-01-29 04:23:00,40.8,38.1,30.08,South,170,0.0,0.0,90,0.00,OVC,,0.00,WeatherDisplay:10.37,2013-01-29 09:23:00,
2013-01-29 04:28:00,40.8,38.1,30.08,South,170,0.0,0.0,90,0.00,OVC,,0.00,WeatherDisplay:10.37,2013-01-29 09:28:00,
2013-01-29 04:33:00,40.8,38.1,30.08,South,170,0.0,0.0,90,0.00,OVC,,0.00,WeatherDisplay:10.37,2013-01-29 09:33:00,
2013-01-29 04:38:00,41.0,38.3,30.08,South,170,0.0,0.0,90,0.00,OVC,,0.00,WeatherDisplay:10.37,2013-01-29 09:38:00,
2013-01-29 04:43:00,41.2,38.5,30.08,South,170,0.0,0.0,90,0.00,OVC,,0.00,WeatherDisplay:10.37,2013-01-29 09:43:00,
2013-01-29 04:48:00,41.4,38.6,30.07,South,170,0.0,0.0,90,0.00,OVC,,0.00,WeatherDisplay:10.37,2013-01-29 09:48:00,
2013-01-29 04:53:00,41.5,38.8,30.07,South,170,0.0,0.0,90,0.00,OVC,,0.00,WeatherDisplay:10.37,2013-01-29 09:53:00,
2013-01-29 04:58:00,41.5,38.8,30.07,South,170,0.0,0.0,90,0.00,OVC,,0.00,WeatherDisplay:10.37,2013-01-29 09:58:00,
2013-01-29 05:03:00,41.7,39.0,30.06,South,170,0.0,0.0,90,0.00,OVC,,0.00,WeatherDisplay:10.37,2013-01-29 10:03:00,
2013-01-29 05:08:00,41.7,39.0,30.06,South,170,0.0,0.0,90,0.00,OVC,,0.00,WeatherDisplay:10.37,2013-01-29 10:08:00,
2013-01-29 05:13:00,41.9,39.2,30.06,South,170,0.0,0.0,90,0.00,OVC,,0.00,WeatherDisplay:10.37,2013-01-29 10:13:00,
2013-01-29 05:18:00,42.1,39.4,30.06,South,170,0.0,0.0,90,0.00,OVC,,0.00,WeatherDisplay:10.37,2013-01-29 10:18:00,
2013-01-29 05:23:00,42.1,39.4,30.06,South,170,0.0,0.0,90,0.00,OVC,,0.00,WeatherDisplay:10.37,2013-01-29 10:23:00,
2013-01-29 05:28:00,42.1,39.4,30.06,South,170,0.0,0.0,90,0.00,OVC,,0.00,WeatherDisplay:10.37,2013-01-29 10:28:00,
2013-01-29 05:33:00,42.4,39.7,30.06,South,170,0.0,0.0,90,0.00,OVC,,0.00,WeatherDisplay:10.37,2013-01-29 10:33:00,
2013-01-29 05:38:00,42.4,39.7,30.06,South,170,0.0,0.0,90,0.00,OVC,,0.00,WeatherDisplay:10.37,2013-01-29 10:38:00,
2013-01-29 05:43:00,42.6,39.9,30.05,South,170,0.0,0.0,90,0.00,OVC,,0.00,WeatherDisplay:10.37,2013-01-29 10:43:00,
2013-01-29 05:48:00,42.6,39.9,30.06,South,170,0.0,0.0,90,0.00,OVC,,0.00,WeatherDisplay:10.37,2013-01-29 10:48:00,
2013-01-29 05:53:00,43.0,40.2,30.05,South,170,0.0,0.0,90,0.00,OVC,,0.00,WeatherDisplay:10.37,2013-01-29 10:53:00,
2013-01-29 05:58:00,43.0,40.2,30.06,South,170,0.0,0.0,90,0.00,OVC,,0.00,WeatherDisplay:10.37,2013-01-29 10:58:00,
2013-01-29 06:03:00,43.0,40.2,30.06,South,170,0.0,0.0,90,0.00,OVC,,0.00,WeatherDisplay:10.37,2013-01-29 11:03:00,
2013-01-29 06:08:00,43.0,40.2,30.06,South,170,0.0,0.0,90,0.00,OVC,,0.00,WeatherDisplay:10.37,2013-01-29 11:08:00,
2013-01-29 06:13:00,43.3,40.6,30.05,South,170,0.0,0.0,90,0.00,OVC,,0.00,WeatherDisplay:10.37,2013-01-29 11:13:00,
2013-01-29 06:18:00,43.3,40.6,30.05,South,170,0.0,0.0,90,0.00,OVC,,0.00,WeatherDisplay:10.37,2013-01-29 11:18:00,
2013-01-29 06:23:00,43.5,40.8,30.06,South,170,0.0,0.0,90,0.00,OVC,,0.00,WeatherDisplay:10.37,2013-01-29 11:23:00,
2013-01-29 06:28:00,43.5,40.8,30.06,South,170,0.0,0.0,90,0.00,OVC,,0.00,WeatherDisplay:10.37,2013-01-29 11:28:00,
2013-01-29 06:33:00,43.5,40.8,30.06,South,170,0.0,0.0,90,0.00,OVC,,0.00,WeatherDisplay:10.37,2013-01-29 11:33:00,
2013-01-29 06:38:00,43.5,40.8,30.06,South,170,0.0,0.0,90,0.00,OVC,,0.00,WeatherDisplay:10.37,2013-01-29 11:38:00,
2013-01-29 06:43:00,43.7,41.0,30.05,South,170,0.0,0.0,90,0.00,OVC,,0.00,WeatherDisplay:10.37,2013-01-29 11:43:00,
2013-01-29 06:48:00,43.9,41.1,30.05,South,170,0.0,0.0,90,0.00,OVC,,0.00,WeatherDisplay:10.37,2013-01-29 11:48:00,
2013-01-29 06:53:00,43.9,41.1,30.06,South,170,0.0,0.0,90,0.00,OVC,,0.00,WeatherDisplay:10.37,2013-01-29 11:53:00,
2013-01-29 06:58:00,44.1,41.3,30.05,South,170,0.0,0.0,90,0.00,OVC,,0.00,WeatherDisplay:10.37,2013-01-29 11:58:00,
2013-01-29 07:03:00,44.2,41.5,30.06,South,170,0.0,0.0,90,0.00,OVC,,0.00,WeatherDisplay:10.37,2013-01-29 12:03:00,
2013-01-29 07:08:00,44.2,41.5,30.06,South,170,0.0,0.0,90,0.00,OVC,,0.00,WeatherDisplay:10.37,2013-01-29 12:08:00,
2013-01-29 07:13:00,44.4,41.7,30.06,South,170,0.0,0.0,90,0.00,OVC,,0.00,WeatherDisplay:10.37,2013-01-29 12:13:00,
2013-01-29 07:18:00,44.4,41.7,30.05,South,170,0.0,0.0,90,0.00,OVC,,0.00,WeatherDisplay:10.37,2013-01-29 12:18:00,
2013-01-29 07:23:00,44.6,41.8,30.05,South,170,0.0,0.0,90,0.00,OVC,,0.00,WeatherDisplay:10.37,2013-01-29 12:23:00,
2013-01-29 07:28:00,44.6,41.8,30.05,South,170,0.0,0.0,90,0.00,OVC,,0.00,WeatherDisplay:10.37,2013-01-29 12:28:00,
2013-01-29 07:33:00,44.8,42.0,30.06,South,170,0.0,0.0,90,0.00,OVC,,0.00,WeatherDisplay:10.37,2013-01-29 12:33:00,
2013-01-29 07:38:00,44.8,42.0,30.05,South,170,0.0,0.0,90,0.00,OVC,,0.00,WeatherDisplay:10.37,2013-01-29 12:38:00,
2013-01-29 07:43:00,45.0,42.2,30.05,South,170,0.0,0.0,90,0.00,OVC,,0.00,WeatherDisplay:10.37,2013-01-29 12:43:00,
2013-01-29 07:48:00,45.0,42.2,30.05,South,170,0.0,0.0,90,0.00,OVC,,0.00,WeatherDisplay:10.37,2013-01-29 12:48:00,
2013-01-29 07:53:00,45.0,42.2,30.05,South,170,0.0,0.0,90,0.00,OVC,,0.00,WeatherDisplay:10.37,2013-01-29 12:53:00,
2013-01-29 07:58:00,45.1,42.4,30.04,South,170,0.0,0.0,90,0.00,OVC,,0.00,WeatherDisplay:10.37,2013-01-29 12:58:00,
2013-01-29 08:03:00,45.1,42.4,30.04,South,170,0.0,0.0,90,0.00,OVC,,0.00,WeatherDisplay:10.37,2013-01-29 13:03:00,
2013-01-29 08:08:00,45.3,42.6,30.04,South,170,0.0,0.0,90,0.00,OVC,,0.00,WeatherDisplay:10.37,2013-01-29 13:08:00,
2013-01-29 08:13:00,45.5,42.7,30.05,South,170,0.0,0.0,90,0.00,OVC,,0.00,WeatherDisplay:10.37,2013-01-29 13:13:00,
2013-01-29 08:18:00,45.7,42.9,30.04,South,170,0.0,0.0,90,0.00,OVC,,0.00,WeatherDisplay:10.37,2013-01-29 13:18:00,
2013-01-29 08:23:00,45.7,42.9,30.04,South,170,0.0,0.0,90,0.00,OVC,,0.00,WeatherDisplay:10.37,2013-01-29 13:23:00,
2013-01-29 08:28:00,46.0,43.3,30.05,South,170,0.0,0.0,90,0.00,OVC,,0.00,WeatherDisplay:10.37,2013-01-29 13:28:00,
2013-01-29 08:33:00,46.0,43.6,30.04,South,170,0.0,0.0,91,0.00,OVC,,0.00,WeatherDisplay:10.37,2013-01-29 13:33:00,
2013-01-29 08:38:00,46.0,43.6,30.04,South,170,0.0,0.0,91,0.00,OVC,,0.00,WeatherDisplay:10.37,2013-01-29 13:38:00,
2013-01-29 08:43:00,46.2,43.7,30.04,South,170,0.0,0.0,91,0.00,OVC,,0.00,WeatherDisplay:10.37,2013-01-29 13:43:00,
2013-01-29 08:48:00,46.6,44.1,30.04,South,170,0.0,0.0,91,0.00,OVC,,0.00,WeatherDisplay:10.37,2013-01-29 13:48:00,
2013-01-29 08:53:00,46.6,44.1,30.04,South,170,0.0,0.0,91,0.00,OVC,,0.00,WeatherDisplay:10.37,2013-01-29 13:53:00,
2013-01-29 08:58:00,46.8,44.3,30.04,South,170,0.0,0.0,91,0.00,OVC,,0.00,WeatherDisplay:10.37,2013-01-29 13:58:00,
2013-01-29 09:03:00,47.1,44.6,30.04,South,170,0.0,0.0,91,0.00,OVC,,0.00,WeatherDisplay:10.37,2013-01-29 14:03:00,
2013-01-29 09:08:00,47.1,44.6,30.04,South,170,0.0,0.0,91,0.00,OVC,,0.00,WeatherDisplay:10.37,2013-01-29 14:08:00,
2013-01-29 09:13:00,47.5,45.0,30.05,South,170,0.0,0.0,91,0.00,OVC,,0.00,WeatherDisplay:10.37,2013-01-29 14:13:00,
2013-01-29 09:18:00,47.7,44.9,30.05,South,170,0.0,0.0,90,0.00,OVC,,0.00,WeatherDisplay:10.37,2013-01-29 14:18:00,
2013-01-29 09:23:00,47.8,45.0,30.05,South,170,0.0,0.0,90,0.00,OVC,,0.00,WeatherDisplay:10.37,2013-01-29 14:23:00,
2013-01-29 09:28:00,48.2,45.4,30.05,South,170,0.0,0.0,90,0.00,OVC,,0.00,WeatherDisplay:10.37,2013-01-29 14:28:00,
2013-01-29 09:33:00,48.4,45.6,30.05,South,170,0.0,0.0,90,0.00,OVC,,0.00,WeatherDisplay:10.37,2013-01-29 14:33:00,
2013-01-29 09:38:00,48.7,45.9,30.04,South,170,0.0,0.0,90,0.00,OVC,,0.00,WeatherDisplay:10.37,2013-01-29 14:38:00,
2013-01-29 09:43:00,48.9,46.1,30.04,South,170,0.0,0.0,90,0.00,OVC,,0.00,WeatherDisplay:10.37,2013-01-29 14:43:00,
2013-01-29 09:48:00,49.1,46.3,30.04,SSE,160,4.6,4.6,90,0.00,OVC,,0.00,WeatherDisplay:10.37,2013-01-29 14:48:00,
2013-01-29 09:53:00,49.3,46.8,30.04,SSE,160,4.6,4.6,91,0.00,OVC,,0.00,WeatherDisplay:10.37,2013-01-29 14:53:00,
2013-01-29 09:58:00,49.6,47.1,30.04,SSE,160,4.6,4.6,91,0.00,OVC,,0.00,WeatherDisplay:10.37,2013-01-29 14:58:00,
2013-01-29 10:03:00,49.6,47.1,30.04,SSE,160,4.6,4.6,91,0.00,OVC,,0.00,WeatherDisplay:10.37,2013-01-29 15:03:00,
2013-01-29 10:08:00,49.8,47.3,30.04,SSE,160,4.6,4.6,91,0.00,OVC,,0.00,WeatherDisplay:10.37,2013-01-29 15:08:00,
2013-01-29 10:13:00,49.8,47.3,30.05,SSE,160,4.6,4.6,91,0.00,OVC,,0.00,WeatherDisplay:10.37,2013-01-29 15:13:00,
2013-01-29 10:18:00,50.0,47.5,30.05,SSE,160,0.0,0.0,91,0.00,OVC,,0.00,WeatherDisplay:10.37,2013-01-29 15:18:00,
2013-01-29 10:23:00,50.2,47.7,30.05,SSE,160,0.0,0.0,91,0.00,OVC,,0.00,WeatherDisplay:10.37,2013-01-29 15:23:00,
2013-01-29 10:28:00,50.2,47.7,30.04,SSE,160,0.0,0.0,91,0.00,OVC,,0.00,WeatherDisplay:10.37,2013-01-29 15:28:00,
2013-01-29 10:33:00,50.2,47.7,30.05,SSE,160,0.0,0.0,91,0.00,OVC,,0.00,WeatherDisplay:10.37,2013-01-29 15:33:00,
2013-01-29 10:38:00,50.5,48.0,30.05,SSE,160,0.0,0.0,91,0.00,OVC,,0.00,WeatherDisplay:10.37,2013-01-29 15:38:00,
2013-01-29 10:43:00,50.5,48.0,30.05,SSE,160,0.0,0.0,91,0.00,OVC,,0.00,WeatherDisplay:10.37,2013-01-29 15:43:00,
2013-01-29 10:48:00,50.7,48.2,30.04,East,100,3.5,3.5,91,0.00,OVC,,0.00,WeatherDisplay:10.37,2013-01-29 15:48:00,
2013-01-29 10:53:00,50.9,48.4,30.04,East,100,3.5,3.5,91,0.00,OVC,,0.00,WeatherDisplay:10.37,2013-01-29 15:53:00,
2013-01-29 10:58:00,51.1,48.5,30.04,East,100,3.5,3.5,91,0.00,OVC,,0.00,WeatherDisplay:10.37,2013-01-29 15:58:00,
2013-01-29 11:03:00,51.3,48.7,30.04,East,100,3.5,3.5,91,0.00,OVC,,0.00,WeatherDisplay:10.37,2013-01-29 16:03:00,
2013-01-29 11:08:00,51.6,49.1,30.04,East,100,3.5,3.5,91,0.00,OVC,,0.00,WeatherDisplay:10.37,2013-01-29 16:08:00,
2013-01-29 11:13:00,51.6,49.1,30.04,East,100,3.5,3.5,91,0.00,OVC,,0.00,WeatherDisplay:10.37,2013-01-29 16:13:00,
2013-01-29 11:18:00,52.0,49.4,30.03,East,100,0.0,0.0,91,0.00,OVC,,0.00,WeatherDisplay:10.37,2013-01-29 16:18:00,
2013-01-29 11:23:00,52.0,49.4,30.03,East,100,0.0,0.0,91,0.00,OVC,,0.00,WeatherDisplay:10.37,2013-01-29 16:23:00,
2013-01-29 11:28:00,52.3,49.8,30.03,East,100,0.0,0.0,91,0.00,OVC,,0.00,WeatherDisplay:10.37,2013-01-29 16:28:00,
2013-01-29 11:33:00,52.5,50.0,30.03,East,100,0.0,0.0,91,0.00,OVC,,0.00,WeatherDisplay:10.37,2013-01-29 16:33:00,
2013-01-29 11:38:00,52.7,50.1,30.03,East,100,0.0,0.0,91,0.00,OVC,,0.00,WeatherDisplay:10.37,2013-01-29 16:38:00,
2013-01-29 11:43:00,53.2,51.0,30.03,East,100,0.0,0.0,92,0.00,OVC,,0.00,WeatherDisplay:10.37,2013-01-29 16:43:00,
2013-01-29 11:48:00,53.4,51.2,30.03,East,100,0.0,0.0,92,0.00,OVC,,0.00,WeatherDisplay:10.37,2013-01-29 16:48:00,
2013-01-29 11:53:00,53.8,51.5,30.02,East,100,0.0,0.0,92,0.00,OVC,,0.00,WeatherDisplay:10.37,2013-01-29 16:53:00,
2013-01-29 11:58:00,54.3,52.0,30.02,East,100,0.0,0.0,92,0.00,OVC,,0.00,WeatherDisplay:10.37,2013-01-29 16:58:00,
2013-01-29 12:03:00,54.3,51.7,30.01,East,100,0.0,0.0,91,0.00,OVC,,0.00,WeatherDisplay:10.37,2013-01-29 17:03:00,
2013-01-29 12:08:00,54.7,52.1,30.01,East,100,0.0,0.0,91,0.00,OVC,,0.00,WeatherDisplay:10.37,2013-01-29 17:08:00,
2013-01-29 12:13:00,55.0,52.5,30.01,East,100,0.0,0.0,91,0.00,OVC,,0.00,WeatherDisplay:10.37,2013-01-29 17:13:00,
2013-01-29 12:18:00,55.2,52.6,30.00,SSE,150,3.5,3.5,91,0.00,OVC,,0.00,WeatherDisplay:10.37,2013-01-29 17:18:00,
2013-01-29 12:23:00,55.8,53.2,30.00,SSE,150,3.5,3.5,91,0.00,OVC,,0.00,WeatherDisplay:10.37,2013-01-29 17:23:00,
2013-01-29 12:28:00,56.3,53.7,29.99,SSE,150,3.5,3.5,91,0.00,OVC,,0.00,WeatherDisplay:10.37,2013-01-29 17:28:00,
2013-01-29 12:33:00,56.5,53.9,29.99,SSE,150,3.5,3.5,91,0.00,OVC,,0.00,WeatherDisplay:10.37,2013-01-29 17:33:00,
2013-01-29 12:38:00,57.0,54.4,29.99,SSE,150,3.5,3.5,91,0.00,OVC,,0.00,WeatherDisplay:10.37,2013-01-29 17:38:00,
2013-01-29 12:43:00,57.4,54.5,29.99,SSE,150,3.5,3.5,90,0.00,OVC,,0.00,WeatherDisplay:10.37,2013-01-29 17:43:00,
2013-01-29 12:48:00,57.6,54.6,29.99,SSE,150,3.5,3.5,90,0.00,OVC,,0.00,WeatherDisplay:10.37,2013-01-29 17:48:00,
2013-01-29 12:53:00,57.9,54.7,29.98,SSE,150,3.5,3.5,89,0.00,OVC,,0.00,WeatherDisplay:10.37,2013-01-29 17:53:00,
2013-01-29 12:58:00,58.3,55.1,29.98,SSE,150,3.5,3.5,89,0.00,OVC,,0.00,WeatherDisplay:10.37,2013-01-29 17:58:00,
2013-01-29 13:03:00,58.5,55.2,29.97,SSE,150,3.5,3.5,89,0.00,OVC,,0.00,WeatherDisplay:10.37,2013-01-29 18:03:00,
2013-01-29 13:08:00,58.6,55.4,29.97,SSE,150,3.5,3.5,89,0.00,OVC,,0.00,WeatherDisplay:10.37,2013-01-29 18:08:00,
2013-01-29 13:13:00,58.8,55.3,29.96,SSE,150,3.5,3.5,88,0.00,OVC,,0.00,WeatherDisplay:10.37,2013-01-29 18:13:00,
2013-01-29 13:18:00,58.8,55.3,29.96,SSE,150,3.5,3.5,88,0.00,OVC,,0.00,WeatherDisplay:10.37,2013-01-29 18:18:00,
2013-01-29 13:23:00,59.2,55.6,29.96,SSE,150,3.5,3.5,88,0.00,OVC,,0.00,WeatherDisplay:10.37,2013-01-29 18:23:00,
2013-01-29 13:28:00,59.5,55.7,29.96,SSE,150,3.5,3.5,87,0.00,OVC,,0.00,WeatherDisplay:10.37,2013-01-29 18:28:00,
2013-01-29 13:33:00,59.7,55.8,29.96,SSE,150,3.5,3.5,87,0.00,OVC,,0.00,WeatherDisplay:10.37,2013-01-29 18:33:00,
2013-01-29 13:38:00,59.9,56.0,29.95,SSE,150,3.5,3.5,87,0.00,OVC,,0.00,WeatherDisplay:10.37,2013-01-29 18:38:00,
2013-01-29 13:43:00,60.4,56.6,29.95,SSE,150,3.5,3.5,87,0.00,OVC,,0.00,WeatherDisplay:10.37,2013-01-29 18:43:00,
2013-01-29 13:48:00,61.0,57.1,29.94,SSE,150,3.5,3.5,87,0.00,OVC,,0.00,WeatherDisplay:10.37,2013-01-29 18:48:00,
2013-01-29 13:53:00,61.3,57.1,29.94,SSE,150,3.5,3.5,86,0.00,OVC,,0.00,WeatherDisplay:10.37,2013-01-29 18:53:00,
2013-01-29 13:58:00,61.9,57.3,29.94,SSE,150,3.5,3.5,85,0.00,OVC,,0.00,WeatherDisplay:10.37,2013-01-29 18:58:00,
2013-01-29 14:03:00,62.2,57.3,29.93,SSE,150,3.5,3.5,84,0.00,OVC,,0.00,WeatherDisplay:10.37,2013-01-29 19:03:00,
2013-01-29 14:08:00,62.4,57.5,29.93,SSE,150,3.5,3.5,84,0.00,OVC,,0.00,WeatherDisplay:10.37,2013-01-29 19:08:00,
2013-01-29 14:13:00,62.4,57.2,29.93,SSE,150,3.5,3.5,83,0.00,OVC,,0.00,WeatherDisplay:10.37,2013-01-29 19:13:00,
2013-01-29 14:18:00,63.0,57.4,29.93,South,190,5.8,5.8,82,0.00,OVC,,0.00,WeatherDisplay:10.37,2013-01-29 19:18:00,
2013-01-29 14:23:00,63.3,57.7,29.93,South,190,5.8,5.8,82,0.00,OVC,,0.00,WeatherDisplay:10.37,2013-01-29 19:23:00,
2013-01-29 14:28:00,63.7,57.7,29.93,South,190,5.8,5.8,81,0.00,OVC,,0.00,WeatherDisplay:10.37,2013-01-29 19:28:00,
2013-01-29 14:33:00,64.0,58.1,29.93,South,190,5.8,5.8,81,0.00,OVC,,0.00,WeatherDisplay:10.37,2013-01-29 19:33:00,
2013-01-29 14:38:00,64.0,58.1,29.92,South,190,5.8,5.8,81,0.00,OVC,,0.00,WeatherDisplay:10.37,2013-01-29 19:38:00,
2013-01-29 14:43:00,64.2,58.3,29.92,South,190,5.8,5.8,81,0.00,OVC,,0.00,WeatherDisplay:10.37,2013-01-29 19:43:00,
2013-01-29 14:48:00,64.6,57.9,29.92,South,190,5.8,5.8,79,0.00,OVC,,0.00,WeatherDisplay:10.37,2013-01-29 19:48:00,
2013-01-29 14:53:00,64.9,58.3,29.92,South,190,5.8,5.8,79,0.00,OVC,,0.00,WeatherDisplay:10.37,2013-01-29 19:53:00,
2013-01-29 14:58:00,65.3,58.6,29.91,South,190,5.8,5.8,79,0.00,OVC,,0.00,WeatherDisplay:10.37,2013-01-29 19:58:00,
2013-01-29 15:03:00,66.0,58.6,29.91,South,190,5.8,5.8,77,0.00,OVC,,0.00,WeatherDisplay:10.37,2013-01-29 20:03:00,
2013-01-29 15:08:00,66.0,58.6,29.91,South,190,5.8,5.8,77,0.00,OVC,,0.00,WeatherDisplay:10.37,2013-01-29 20:08:00,
2013-01-29 15:13:00,66.2,58.4,29.91,South,190,5.8,5.8,76,0.00,OVC,,0.00,WeatherDisplay:10.37,2013-01-29 20:13:00,
2013-01-29 15:18:00,66.4,58.6,29.91,SSE,150,8.1,8.1,76,0.00,BKN,OVC,0.00,WeatherDisplay:10.37,2013-01-29 20:18:00,
2013-01-29 15:23:00,66.4,58.6,29.91,SSE,150,8.1,8.1,76,0.00,BKN,OVC,0.00,WeatherDisplay:10.37,2013-01-29 20:23:00,
2013-01-29 15:28:00,66.4,58.2,29.91,SSE,150,8.1,8.1,75,0.00,BKN,OVC,0.00,WeatherDisplay:10.37,2013-01-29 20:28:00,
2013-01-29 15:33:00,66.4,58.2,29.91,SSE,150,8.1,8.1,75,0.00,BKN,OVC,0.00,WeatherDisplay:10.37,2013-01-29 20:33:00,
2013-01-29 15:38:00,66.4,58.2,29.91,SSE,150,8.1,8.1,75,0.00,BKN,OVC,0.00,WeatherDisplay:10.37,2013-01-29 20:38:00,
2013-01-29 15:43:00,66.4,58.2,29.90,SSE,150,8.1,8.1,75,0.00,BKN,OVC,0.00,WeatherDisplay:10.37,2013-01-29 20:43:00,
2013-01-29 15:48:00,66.4,58.2,29.90,SSE,150,8.1,8.1,75,0.00,BKN,OVC,0.00,WeatherDisplay:10.37,2013-01-29 20:48:00,
2013-01-29 15:53:00,66.6,58.4,29.90,SSE,150,8.1,8.1,75,0.00,BKN,OVC,0.00,WeatherDisplay:10.37,2013-01-29 20:53:00,
2013-01-29 15:58:00,66.6,58.4,29.90,SSE,150,8.1,8.1,75,0.00,BKN,OVC,0.00,WeatherDisplay:10.37,2013-01-29 20:58:00,
2013-01-29 16:03:00,66.4,58.2,29.89,SSE,150,8.1,8.1,75,0.00,BKN,OVC,0.00,WeatherDisplay:10.37,2013-01-29 21:03:00,
2013-01-29 16:08:00,66.4,58.2,29.90,SSE,150,8.1,8.1,75,0.00,BKN,OVC,0.00,WeatherDisplay:10.37,2013-01-29 21:08:00,
2013-01-29 16:13:00,66.4,58.2,29.90,SSE,150,8.1,8.1,75,0.00,BKN,OVC,0.00,WeatherDisplay:10.37,2013-01-29 21:13:00,
2013-01-29 16:18:00,66.0,57.9,29.90,SSE,160,5.8,5.8,75,0.00,OVC,,0.00,WeatherDisplay:10.37,2013-01-29 21:18:00,
2013-01-29 16:23:00,66.0,57.9,29.89,SSE,160,5.8,5.8,75,0.00,OVC,,0.00,WeatherDisplay:10.37,2013-01-29 21:23:00,
2013-01-29 16:28:00,65.5,57.3,29.89,SSE,160,5.8,5.8,75,0.00,OVC,,0.00,WeatherDisplay:10.37,2013-01-29 21:28:00,
2013-01-29 16:33:00,65.5,57.7,29.89,SSE,160,5.8,5.8,76,0.00,OVC,,0.00,WeatherDisplay:10.37,2013-01-29 21:33:00,
2013-01-29 16:38:00,65.1,57.4,29.89,SSE,160,5.8,5.8,76,0.00,OVC,,0.00,WeatherDisplay:10.37,2013-01-29 21:38:00,
2013-01-29 16:43:00,64.9,57.6,29.89,SSE,160,5.8,5.8,77,0.00,OVC,,0.00,WeatherDisplay:10.37,2013-01-29 21:43:00,
2013-01-29 16:48:00,64.9,57.6,29.89,SSE,160,5.8,5.8,77,0.00,OVC,,0.00,WeatherDisplay:10.37,2013-01-29 21:48:00,
2013-01-29 16:53:00,64.6,57.2,29.89,SSE,160,5.8,5.8,77,0.00,OVC,,0.00,WeatherDisplay:10.37,2013-01-29 21:53:00,
2013-01-29 16:58:00,64.2,57.2,29.89,SSE,160,5.8,5.8,78,0.00,OVC,,0.00,WeatherDisplay:10.37,2013-01-29 21:58:00,
2013-01-29 17:03:00,64.2,57.6,29.89,SSE,160,5.8,5.8,79,0.00,OVC,,0.00,WeatherDisplay:10.37,2013-01-29 22:03:00,
2013-01-29 17:08:00,63.9,57.6,29.89,SSE,160,5.8,5.8,80,0.00,OVC,,0.00,WeatherDisplay:10.37,2013-01-29 22:08:00,
2013-01-29 17:13:00,63.7,58.4,29.88,SSE,160,5.8,5.8,83,0.00,OVC,,0.00,WeatherDisplay:10.37,2013-01-29 22:13:00,
2013-01-29 17:18:00,63.5,57.9,29.87,SE,140,5.8,5.8,82,0.00,OVC,,0.00,WeatherDisplay:10.37,2013-01-29 22:18:00,
2013-01-29 17:23:00,63.3,58.1,29.87,SE,140,5.8,5.8,83,0.00,OVC,,0.00,WeatherDisplay:10.37,2013-01-29 22:23:00,
2013-01-29 17:28:00,63.1,57.9,29.88,SE,140,5.8,5.8,83,0.00,OVC,,0.00,WeatherDisplay:10.37,2013-01-29 22:28:00,
2013-01-29 17:33:00,63.1,58.2,29.87,SE,140,5.8,5.8,84,0.00,OVC,,0.00,WeatherDisplay:10.37,2013-01-29 22:33:00,
2013-01-29 17:38:00,63.0,58.0,29.88,SE,140,5.8,5.8,84,0.00,OVC,,0.00,WeatherDisplay:10.37,2013-01-29 22:38:00,
2013-01-29 17:43:00,62.8,57.9,29.87,SE,140,5.8,5.8,84,0.00,OVC,,0.00,WeatherDisplay:10.37,2013-01-29 22:43:00,
2013-01-29 17:48:00,62.8,58.2,29.87,SE,140,5.8,5.8,85,0.00,OVC,,0.00,WeatherDisplay:10.37,2013-01-29 22:48:00,
2013-01-29 17:53:00,62.6,58.0,29.87,SE,140,5.8,5.8,85,0.00,OVC,,0.00,WeatherDisplay:10.37,2013-01-29 22:53:00,
2013-01-29 17:58:00,62.4,57.5,29.86,SE,140,5.8,5.8,84,0.00,OVC,,0.00,WeatherDisplay:10.37,2013-01-29 22:58:00,
2013-01-29 18:03:00,62.2,57.3,29.86,SE,140,5.8,5.8,84,0.00,OVC,,0.00,WeatherDisplay:10.37,2013-01-29 23:03:00,
2013-01-29 18:08:00,61.9,57.0,29.87,SE,140,5.8,5.8,84,0.00,OVC,,0.00,WeatherDisplay:10.37,2013-01-29 23:08:00,
2013-01-29 18:13:00,61.9,57.0,29.87,SE,140,5.8,5.8,84,0.00,OVC,,0.00,WeatherDisplay:10.37,2013-01-29 23:13:00,
2013-01-29 18:18:00,61.5,56.6,29.87,SE,130,5.8,5.8,84,0.00,OVC,,0.00,WeatherDisplay:10.37,2013-01-29 23:18:00,
2013-01-29 18:23:00,61.5,57.0,29.86,SE,130,5.8,5.8,85,0.00,OVC,,0.00,WeatherDisplay:10.37,2013-01-29 23:23:00,
2013-01-29 18:28:00,61.3,56.8,29.86,SE,130,5.8,5.8,85,0.00,OVC,,0.00,WeatherDisplay:10.37,2013-01-29 23:28:00,
2013-01-29 18:33:00,61.2,56.6,29.86,SE,130,5.8,5.8,85,0.00,OVC,,0.00,WeatherDisplay:10.37,2013-01-29 23:33:00,
2013-01-29 18:38:00,61.2,56.6,29.86,SE,130,5.8,5.8,85,0.00,OVC,,0.00,WeatherDisplay:10.37,2013-01-29 23:38:00,
2013-01-29 18:43:00,61.0,56.4,29.86,SE,130,5.8,5.8,85,0.00,OVC,,0.00,WeatherDisplay:10.37,2013-01-29 23:43:00,
2013-01-29 18:48:00,61.0,56.4,29.86,SE,130,5.8,5.8,85,0.00,OVC,,0.00,WeatherDisplay:10.37,2013-01-29 23:48:00,
2013-01-29 18:53:00,60.6,56.1,29.86,SE,130,5.8,5.8,85,0.00,OVC,,0.00,WeatherDisplay:10.37,2013-01-29 23:53:00,
2013-01-29 18:58:00,60.6,56.1,29.87,SE,130,5.8,5.8,85,0.00,OVC,,0.00,WeatherDisplay:10.37,2013-01-29 23:58:00,
2013-01-29 19:03:00,60.6,56.1,29.86,SE,130,5.8,5.8,85,0.00,OVC,,0.00,WeatherDisplay:10.37,2013-01-30 00:03:00,
2013-01-29 19:08:00,60.4,56.2,29.86,SE,130,5.8,5.8,86,0.00,OVC,,0.00,WeatherDisplay:10.37,2013-01-30 00:08:00,
2013-01-29 19:13:00,60.4,56.2,29.86,SE,130,5.8,5.8,86,0.00,OVC,,0.00,WeatherDisplay:10.37,2013-01-30 00:13:00,
2013-01-29 19:18:00,60.4,56.2,29.86,SE,130,5.8,5.8,86,0.00,OVC,,0.00,WeatherDisplay:10.37,2013-01-30 00:18:00,
2013-01-29 19:23:00,60.1,55.9,29.86,SE,130,5.8,5.8,86,0.00,OVC,,0.00,WeatherDisplay:10.37,2013-01-30 00:23:00,
2013-01-29 19:28:00,60.1,55.9,29.86,SE,130,5.8,5.8,86,0.00,OVC,,0.00,WeatherDisplay:10.37,2013-01-30 00:28:00,
2013-01-29 19:33:00,60.1,55.9,29.86,SE,130,5.8,5.8,86,0.00,OVC,,0.00,WeatherDisplay:10.37,2013-01-30 00:33:00,
2013-01-29 19:38:00,59.9,55.7,29.86,SE,130,5.8,5.8,86,0.00,OVC,,0.00,WeatherDisplay:10.37,2013-01-30 00:38:00,
2013-01-29 19:43:00,59.9,56.0,29.86,SE,130,5.8,5.8,87,0.00,OVC,,0.00,WeatherDisplay:10.37,2013-01-30 00:43:00,
2013-01-29 19:48:00,59.9,56.0,29.86,SE,130,5.8,5.8,87,0.00,OVC,,0.00,WeatherDisplay:10.37,2013-01-30 00:48:00,
2013-01-29 19:53:00,59.7,55.8,29.86,SE,130,5.8,5.8,87,0.00,OVC,,0.00,WeatherDisplay:10.37,2013-01-30 00:53:00,
2013-01-29 19:58:00,59.7,55.8,29.86,SE,130,5.8,5.8,87,0.00,OVC,,0.00,WeatherDisplay:10.37,2013-01-30 00:58:00,
2013-01-29 20:03:00,59.7,55.8,29.86,SE,130,5.8,5.8,87,0.00,OVC,,0.00,WeatherDisplay:10.37,2013-01-30 01:03:00,
2013-01-29 20:08:00,59.5,55.7,29.87,SE,130,5.8,5.8,87,0.00,OVC,,0.00,WeatherDisplay:10.37,2013-01-30 01:08:00,
2013-01-29 20:13:00,59.5,55.7,29.87,SE,130,5.8,5.8,87,0.00,OVC,,0.00,WeatherDisplay:10.37,2013-01-30 01:13:00,
2013-01-29 20:18:00,59.5,56.0,29.87,SE,130,5.8,5.8,88,0.00,OVC,,0.00,WeatherDisplay:10.37,2013-01-30 01:18:00,
2013-01-29 20:23:00,59.5,56.0,29.87,SE,130,5.8,5.8,88,0.00,OVC,,0.00,WeatherDisplay:10.37,2013-01-30 01:23:00,
2013-01-29 20:28:00,59.5,56.0,29.87,SE,130,5.8,5.8,88,0.00,OVC,,0.00,WeatherDisplay:10.37,2013-01-30 01:28:00,
2013-01-29 20:33:00,59.4,55.8,29.86,SE,130,5.8,5.8,88,0.00,OVC,,0.00,WeatherDisplay:10.37,2013-01-30 01:33:00,
2013-01-29 20:38:00,59.5,56.0,29.86,SE,130,5.8,5.8,88,0.00,OVC,,0.00,WeatherDisplay:10.37,2013-01-30 01:38:00,
2013-01-29 20:43:00,59.5,56.3,29.86,SE,130,5.8,5.8,89,0.00,OVC,,0.00,WeatherDisplay:10.37,2013-01-30 01:43:00,
2013-01-29 20:48:00,59.4,56.1,29.86,SE,130,5.8,5.8,89,0.00,OVC,,0.00,WeatherDisplay:10.37,2013-01-30 01:48:00,
2013-01-29 20:53:00,59.4,56.1,29.86,SE,130,5.8,5.8,89,0.00,OVC,,0.00,WeatherDisplay:10.37,2013-01-30 01:53:00,
2013-01-29 20:58:00,59.4,56.4,29.86,SE,130,5.8,5.8,90,0.00,OVC,,0.00,WeatherDisplay:10.37,2013-01-30 01:58:00,
2013-01-29 21:03:00,59.4,56.4,29.86,SE,130,5.8,5.8,90,0.00,OVC,,0.00,WeatherDisplay:10.37,2013-01-30 02:03:00,
2013-01-29 21:08:00,59.5,56.6,29.86,SE,130,5.8,5.8,90,0.00,OVC,,0.00,WeatherDisplay:10.37,2013-01-30 02:08:00,
2013-01-29 21:13:00,59.5,56.9,29.86,SE,130,5.8,5.8,91,0.00,OVC,,0.00,WeatherDisplay:10.37,2013-01-30 02:13:00,
2013-01-29 21:18:00,59.5,56.9,29.86,SE,130,4.6,4.6,91,0.02,-RA,OVC,0.02,WeatherDisplay:10.37,2013-01-30 02:18:00,
2013-01-29 21:23:00,59.5,57.2,29.86,SE,130,4.6,4.6,92,0.04,-RA,OVC,0.04,WeatherDisplay:10.37,2013-01-30 02:23:00,
2013-01-29 21:28:00,59.5,57.2,29.86,SE,130,4.6,4.6,92,0.04,-RA,OVC,0.04,WeatherDisplay:10.37,2013-01-30 02:28:00,
2013-01-29 21:33:00,59.5,57.2,29.85,SE,130,4.6,4.6,92,0.04,-RA,OVC,0.04,WeatherDisplay:10.37,2013-01-30 02:33:00,
2013-01-29 21:38:00,59.5,57.2,29.85,SE,130,4.6,4.6,92,0.04,-RA,OVC,0.04,WeatherDisplay:10.37,2013-01-30 02:38:00,
2013-01-29 21:43:00,59.5,57.2,29.85,SE,130,4.6,4.6,92,0.06,-RA,OVC,0.06,WeatherDisplay:10.37,2013-01-30 02:43:00,
2013-01-29 21:48:00,59.5,57.2,29.85,SE,130,4.6,4.6,92,0.06,-RA,OVC,0.06,WeatherDisplay:10.37,2013-01-30 02:48:00,
2013-01-29 21:53:00,59.4,57.0,29.84,SE,130,4.6,4.6,92,0.06,-RA,OVC,0.06,WeatherDisplay:10.37,2013-01-30 02:53:00,
2013-01-29 21:58:00,59.2,56.9,29.85,SE,130,4.6,4.6,92,0.06,-RA,OVC,0.06,WeatherDisplay:10.37,2013-01-30 02:58:00,
2013-01-29 22:03:00,59.0,56.7,29.85,SE,130,4.6,4.6,92,0.06,-RA,OVC,0.06,WeatherDisplay:10.37,2013-01-30 03:03:00,
2013-01-29 22:08:00,58.8,56.5,29.85,SE,130,4.6,4.6,92,0.06,-RA,OVC,0.06,WeatherDisplay:10.37,2013-01-30 03:08:00,
2013-01-29 22:13:00,58.8,56.5,29.85,SE,130,4.6,4.6,92,0.06,-RA,OVC,0.06,WeatherDisplay:10.37,2013-01-30 03:13:00,
2013-01-29 22:18:00,58.8,56.5,29.85,SE,130,0.0,0.0,92,0.04,OVC,,0.06,WeatherDisplay:10.37,2013-01-30 03:18:00,
2013-01-29 22:23:00,58.8,56.5,29.84,SE,130,0.0,0.0,92,0.02,OVC,,0.06,WeatherDisplay:10.37,2013-01-30 03:23:00,
2013-01-29 22:28:00,58.8,56.5,29.84,SE,130,0.0,0.0,92,0.02,OVC,,0.06,WeatherDisplay:10.37,2013-01-30 03:28:00,
2013-01-29 22:33:00,58.8,56.5,29.84,SE,130,0.0,0.0,92,0.02,OVC,,0.06,WeatherDisplay:10.37,2013-01-30 03:33:00,
2013-01-29 22:38:00,58.8,56.5,29.83,SE,130,0.0,0.0,92,0.02,OVC,,0.06,WeatherDisplay:10.37,2013-01-30 03:38:00,
2013-01-29 22:43:00,58.6,56.3,29.83,SE,130,0.0,0.0,92,0.00,OVC,,0.06,WeatherDisplay:10.37,2013-01-30 03:43:00,
2013-01-29 22:48:00,58.5,56.1,29.83,SE,130,0.0,0.0,92,0.00,OVC,,0.06,WeatherDisplay:10.37,2013-01-30 03:48:00,
2013-01-29 22:53:00,58.5,56.1,29.83,SE,130,0.0,0.0,92,0.00,OVC,,0.06,WeatherDisplay:10.37,2013-01-30 03:53:00,
2013-01-29 22:58:00,58.3,56.0,29.83,SE,130,0.0,0.0,92,0.00,OVC,,0.06,WeatherDisplay:10.37,2013-01-30 03:58:00,
2013-01-29 23:03:00,58.3,56.0,29.83,SE,130,0.0,0.0,92,0.00,OVC,,0.06,WeatherDisplay:10.37,2013-01-30 04:03:00,
2013-01-29 23:08:00,58.3,56.0,29.83,SE,130,0.0,0.0,92,0.00,OVC,,0.06,WeatherDisplay:10.37,2013-01-30 04:08:00,
2013-01-29 23:13:00,58.1,55.8,29.83,SE,130,0.0,0.0,92,0.00,OVC,,0.06,WeatherDisplay:10.37,2013-01-30 04:13:00,
2013-01-29 23:18:00,58.1,55.8,29.83,SE,130,4.6,4.6,92,0.00,OVC,,0.06,WeatherDisplay:10.37,2013-01-30 04:18:00,
2013-01-29 23:23:00,57.9,55.6,29.83,SE,130,4.6,4.6,92,0.00,OVC,,0.06,WeatherDisplay:10.37,2013-01-30 04:23:00,
2013-01-29 23:28:00,57.9,55.6,29.83,SE,130,4.6,4.6,92,0.00,OVC,,0.06,WeatherDisplay:10.37,2013-01-30 04:28:00,
2013-01-29 23:33:00,57.9,55.6,29.82,SE,130,4.6,4.6,92,0.00,OVC,,0.06,WeatherDisplay:10.37,2013-01-30 04:33:00,
2013-01-29 23:38:00,57.9,55.6,29.82,SE,130,4.6,4.6,92,0.00,OVC,,0.06,WeatherDisplay:10.37,2013-01-30 04:38:00,
2013-01-29 23:43:00,57.7,55.4,29.82,SE,130,4.6,4.6,92,0.00,OVC,,0.06,WeatherDisplay:10.37,2013-01-30 04:43:00,
2013-01-29 23:48:00,57.6,55.3,29.82,SE,130,4.6,4.6,92,0.00,OVC,,0.06,WeatherDisplay:10.37,2013-01-30 04:48:00,
2013-01-29 23:53:00,57.4,55.1,29.82,SE,130,4.6,4.6,92,0.00,OVC,,0.06,WeatherDisplay:10.37,2013-01-30 04:53:00,
2013-01-29 23:58:00,57.4,55.1,29.82,SE,130,4.6,4.6,92,0.00,OVC,,0.06,WeatherDisplay:10.37,2013-01-30 04:58:00,